,,PA_Meas_PMT16A,,PR_Meas_QMR101_102,,RH_Meas_QMH101,,SR_Meas_QMS101,,TA_Meas_QMH101,,GenWind,,GenWind,
time,status,PA,status,PR,status,RH,status,SR,status,TA,status,DirAvg,status,SpdAvg,
2010-04-05, 00:00:04,VALID,917.984,VALID,0,VALID,96.8936,VALID,0,VALID,21.4388,VALID,81,VALID,0,
2010-04-05, 00:01:04,VALID,917.987,VALID,0,VALID,96.8707,VALID,0,VALID,21.4177,VALID,81,VALID,0.358594,
2010-04-05, 00:02:04,VALID,917.956,VALID,0,VALID,96.8707,VALID,0,VALID,21.4388,VALID,81,VALID,0.403125,
2010-04-05, 00:03:04,VALID,917.987,VALID,0,VALID,96.8707,VALID,0,VALID,21.3786,VALID,81,VALID,0.319141,
2010-04-05, 00:04:04,VALID,917.99,VALID,0,VALID,96.9012,VALID,0,VALID,21.3591,VALID,81,VALID,0.451172,
2010-04-05, 00:05:04,VALID,917.973,VALID,0,VALID,96.8784,VALID,0,VALID,21.3591,VALID,81,VALID,0.476563,
2010-04-05, 00:06:04,VALID,917.968,VALID,0,VALID,96.9165,VALID,0,VALID,21.3591,VALID,81,VALID,0.492188,
2010-04-05, 00:07:04,VALID,917.966,VALID,0,VALID,96.8936,VALID,0,VALID,21.3786,VALID,81,VALID,0.502344,
2010-04-05, 00:08:04,VALID,917.944,VALID,0,VALID,96.9089,VALID,0,VALID,21.3591,VALID,81,VALID,0.380078,
2010-04-05, 00:09:04,VALID,918.001,VALID,0,VALID,96.9317,VALID,0,VALID,21.3591,VALID,81,VALID,0.403906,
2010-04-05, 00:10:04,VALID,917.972,VALID,0,VALID,96.947,VALID,0,VALID,21.3786,VALID,81,VALID,0.385938,
2010-04-05, 00:11:04,VALID,917.982,VALID,0,VALID,96.9546,VALID,0,VALID,21.3981,VALID,81,VALID,0.499219,
2010-04-05, 00:12:04,VALID,917.999,VALID,0,VALID,96.9698,VALID,0,VALID,21.4177,VALID,81,VALID,0.226563,
2010-04-05, 00:13:04,VALID,917.959,VALID,0,VALID,96.9622,VALID,0,VALID,21.4193,VALID,81,VALID,0.792578,
2010-04-05, 00:14:04,VALID,917.984,VALID,0,VALID,96.9775,VALID,0.107441,VALID,21.3786,VALID,81,VALID,0.639453,
2010-04-05, 00:15:04,VALID,917.992,VALID,0,VALID,96.9775,VALID,0.107441,VALID,21.3575,VALID,81,VALID,0.781641,
2010-04-05, 00:16:04,VALID,917.961,VALID,0,VALID,96.9775,VALID,0.107441,VALID,21.338,VALID,81,VALID,0.683984,
2010-04-05, 00:17:04,VALID,917.957,VALID,0,VALID,96.9698,VALID,0,VALID,21.3591,VALID,81,VALID,0.488672,
2010-04-05, 00:18:04,VALID,917.953,VALID,0,VALID,96.9927,VALID,0.107441,VALID,21.338,VALID,81,VALID,0.590234,
2010-04-05, 00:19:04,VALID,917.966,VALID,0,VALID,96.9851,VALID,0.107441,VALID,21.3786,VALID,81,VALID,0.491406,
2010-04-05, 00:20:04,VALID,917.936,VALID,0,VALID,97.008,VALID,0.107441,VALID,21.3575,VALID,81,VALID,0.346094,
2010-04-05, 00:21:04,VALID,917.96,VALID,0,VALID,97.008,VALID,0,VALID,21.3786,VALID,81,VALID,0.421094,
2010-04-05, 00:22:04,VALID,917.941,VALID,0,VALID,97.0232,VALID,0.107441,VALID,21.3591,VALID,81,VALID,0.580859,
2010-04-05, 00:23:04,VALID,917.944,VALID,0,VALID,97.0156,VALID,0.107441,VALID,21.3575,VALID,81,VALID,0.628516,
2010-04-05, 00:24:04,VALID,917.936,VALID,0,VALID,97.0156,VALID,0.107441,VALID,21.3575,VALID,81,VALID,0.495313,
2010-04-05, 00:25:04,VALID,917.89,VALID,0,VALID,97.0156,VALID,0.107441,VALID,21.3575,VALID,81,VALID,0.606641,
2010-04-05, 00:26:04,VALID,917.923,VALID,0,VALID,97.0308,VALID,0.107441,VALID,21.338,VALID,81,VALID,0.491016,
2010-04-05, 00:27:04,VALID,917.904,VALID,0,VALID,97.0232,VALID,0.107441,VALID,21.338,VALID,81,VALID,0.770312,
2010-04-05, 00:28:04,VALID,917.91,VALID,0,VALID,97.0232,VALID,0.107441,VALID,21.338,VALID,81,VALID,0.521094,
2010-04-05, 00:29:04,VALID,917.869,VALID,0,VALID,97.0232,VALID,0,VALID,21.3201,VALID,81,VALID,0.625781,
2010-04-05, 00:30:04,VALID,917.87,VALID,0,VALID,97.0308,VALID,0,VALID,21.3396,VALID,81,VALID,0.0996094,
2010-04-05, 00:31:04,VALID,917.87,VALID,0,VALID,97.0461,VALID,0,VALID,21.3591,VALID,81,VALID,0.000390625,
2010-04-05, 00:32:04,VALID,917.891,VALID,0,VALID,97.0613,VALID,0,VALID,21.3591,VALID,81,VALID,0.310547,
2010-04-05, 00:33:04,VALID,917.891,VALID,0,VALID,97.0613,VALID,0,VALID,21.3591,VALID,81,VALID,0.592969,
2010-04-05, 00:34:04,VALID,917.888,VALID,0,VALID,97.0537,VALID,0,VALID,21.3412,VALID,81,VALID,0.660547,
2010-04-05, 00:35:04,VALID,917.849,VALID,0,VALID,97.0461,VALID,0,VALID,21.3201,VALID,81,VALID,0.566406,
2010-04-05, 00:36:04,VALID,917.868,VALID,0,VALID,97.0461,VALID,0,VALID,21.3217,VALID,81,VALID,0.527344,
2010-04-05, 00:37:04,VALID,917.847,VALID,0,VALID,97.0461,VALID,0,VALID,21.3201,VALID,81,VALID,0.517969,
2010-04-05, 00:38:04,VALID,917.83,VALID,0,VALID,97.069,VALID,0,VALID,21.3217,VALID,81,VALID,0.228906,
2010-04-05, 00:39:04,VALID,917.813,VALID,0,VALID,97.0537,VALID,0,VALID,21.3201,VALID,81,VALID,0.394922,
2010-04-05, 00:40:04,VALID,917.791,VALID,0,VALID,97.069,VALID,0,VALID,21.3201,VALID,81,VALID,0.159375,
2010-04-05, 00:41:04,VALID,917.782,VALID,0,VALID,97.0842,VALID,0,VALID,21.3396,VALID,81,VALID,0.409375,
2010-04-05, 00:42:04,VALID,917.757,VALID,0,VALID,97.0842,VALID,0,VALID,21.3396,VALID,81,VALID,0.334375,
2010-04-05, 00:43:04,VALID,917.729,VALID,0,VALID,97.0766,VALID,0,VALID,21.3396,VALID,81,VALID,0.366797,
2010-04-05, 00:44:04,VALID,917.718,VALID,0,VALID,97.0766,VALID,0,VALID,21.3396,VALID,81,VALID,0.207813,
2010-04-05, 00:45:04,VALID,917.691,VALID,0,VALID,97.0918,VALID,0,VALID,21.3396,VALID,81,VALID,0.275,
2010-04-05, 00:46:04,VALID,917.685,VALID,0,VALID,97.0766,VALID,0,VALID,21.3396,VALID,81,VALID,0.213281,
2010-04-05, 00:47:04,VALID,917.649,VALID,0,VALID,97.0842,VALID,0,VALID,21.3396,VALID,81,VALID,0.281641,
2010-04-05, 00:48:04,VALID,917.605,VALID,0,VALID,97.0918,VALID,0,VALID,21.3396,VALID,81,VALID,0.23125,
2010-04-05, 00:49:04,VALID,917.6,VALID,0,VALID,97.069,VALID,0,VALID,21.3396,VALID,81,VALID,0.367188,
2010-04-05, 00:50:04,VALID,917.603,VALID,0,VALID,97.0842,VALID,0,VALID,21.3201,VALID,81,VALID,0.219141,
2010-04-05, 00:51:04,VALID,917.589,VALID,0,VALID,97.0842,VALID,0,VALID,21.3396,VALID,81,VALID,0.192188,
2010-04-05, 00:52:04,VALID,917.567,VALID,0,VALID,97.1071,VALID,0,VALID,21.3201,VALID,81,VALID,0.365625,
2010-04-05, 00:53:04,VALID,917.594,VALID,0,VALID,97.0994,VALID,0,VALID,21.3396,VALID,81,VALID,0.261719,
2010-04-05, 00:54:04,VALID,917.565,VALID,0,VALID,97.1071,VALID,0,VALID,21.3201,VALID,81,VALID,0.274219,
2010-04-05, 00:55:04,VALID,917.554,VALID,0,VALID,97.0994,VALID,0,VALID,21.3201,VALID,81,VALID,0.0964844,
2010-04-05, 00:56:04,VALID,917.543,VALID,0,VALID,97.0994,VALID,0,VALID,21.3396,VALID,81,VALID,0,
2010-04-05, 00:57:04,VALID,917.523,VALID,0,VALID,97.1147,VALID,0,VALID,21.3608,VALID,81,VALID,0.203125,
2010-04-05, 00:58:04,VALID,917.519,VALID,0,VALID,97.0918,VALID,0,VALID,21.3412,VALID,81,VALID,0.431641,
2010-04-05, 00:59:04,VALID,917.487,VALID,0,VALID,97.1147,VALID,0,VALID,21.3591,VALID,81,VALID,0.401563,
2010-04-05, 01:00:04,VALID,917.458,VALID,0,VALID,97.1071,VALID,0,VALID,21.3396,VALID,81,VALID,0.459375,
2010-04-05, 01:01:04,VALID,917.46,VALID,0,VALID,97.0766,VALID,0,VALID,21.3396,VALID,81,VALID,0.474219,
2010-04-05, 01:02:04,VALID,917.455,VALID,0,VALID,97.0994,VALID,0,VALID,21.299,VALID,81,VALID,0.447656,
2010-04-05, 01:03:04,VALID,917.42,VALID,0,VALID,97.0994,VALID,0,VALID,21.3396,VALID,81,VALID,0.35,
2010-04-05, 01:04:04,VALID,917.403,VALID,0,VALID,97.1223,VALID,0,VALID,21.3396,VALID,81,VALID,0.172266,
2010-04-05, 01:05:04,VALID,917.39,VALID,0,VALID,97.0994,VALID,0.107441,VALID,21.3396,VALID,81,VALID,0.113672,
2010-04-05, 01:06:04,VALID,917.331,VALID,0,VALID,97.1223,VALID,0,VALID,21.3396,VALID,81,VALID,0.123828,
2010-04-05, 01:07:04,VALID,917.33,VALID,0,VALID,97.1071,VALID,0,VALID,21.3591,VALID,81,VALID,0.219141,
2010-04-05, 01:08:04,VALID,917.316,VALID,0,VALID,97.1223,VALID,0,VALID,21.3396,VALID,81,VALID,0.465234,
2010-04-05, 01:09:04,VALID,917.288,VALID,0,VALID,97.1223,VALID,0,VALID,21.3201,VALID,81,VALID,0.354297,
2010-04-05, 01:10:04,VALID,917.276,VALID,0,VALID,97.1071,VALID,0,VALID,21.3006,VALID,81,VALID,0.351172,
2010-04-05, 01:11:04,VALID,917.232,VALID,0,VALID,97.1147,VALID,0,VALID,21.3006,VALID,81,VALID,0.258594,
2010-04-05, 01:12:04,VALID,917.236,VALID,0,VALID,97.1223,VALID,0,VALID,21.3006,VALID,81,VALID,0.274609,
2010-04-05, 01:13:04,VALID,917.192,VALID,0,VALID,97.1147,VALID,0,VALID,21.3201,VALID,81,VALID,0.366016,
2010-04-05, 01:14:04,VALID,917.188,VALID,0,VALID,97.1299,VALID,0,VALID,21.3396,VALID,81,VALID,0.432813,
2010-04-05, 01:15:04,VALID,917.184,VALID,0,VALID,97.1299,VALID,0,VALID,21.3006,VALID,81,VALID,0.605469,
2010-04-05, 01:16:04,VALID,917.135,VALID,0,VALID,97.1299,VALID,0,VALID,21.3217,VALID,81,VALID,0.323828,
2010-04-05, 01:17:04,VALID,917.136,VALID,0,VALID,97.1071,VALID,0,VALID,21.3396,VALID,81,VALID,0.360938,
2010-04-05, 01:18:04,VALID,917.135,VALID,0,VALID,97.1147,VALID,0,VALID,21.3201,VALID,81,VALID,0.0414063,
2010-04-05, 01:19:04,VALID,917.137,VALID,0,VALID,97.1299,VALID,0,VALID,21.3006,VALID,81,VALID,0.290625,
2010-04-05, 01:20:04,VALID,917.123,VALID,0,VALID,97.1223,VALID,0,VALID,21.3217,VALID,81,VALID,0.243359,
2010-04-05, 01:21:04,VALID,917.129,VALID,0,VALID,97.1223,VALID,0,VALID,21.3412,VALID,81,VALID,0.273438,
2010-04-05, 01:22:04,VALID,917.118,VALID,0,VALID,97.1147,VALID,0,VALID,21.3217,VALID,81,VALID,0.273438,
2010-04-05, 01:23:04,VALID,917.13,VALID,0,VALID,97.1299,VALID,0,VALID,21.3006,VALID,81,VALID,0.338672,
2010-04-05, 01:24:04,VALID,917.106,VALID,0,VALID,97.0994,VALID,0,VALID,21.3006,VALID,81,VALID,0.253906,
2010-04-05, 01:25:04,VALID,917.112,VALID,0,VALID,97.1299,VALID,0,VALID,21.2811,VALID,81,VALID,0.228125,
2010-04-05, 01:26:04,VALID,917.122,VALID,0,VALID,97.1223,VALID,0,VALID,21.2811,VALID,81,VALID,0,
2010-04-05, 01:27:04,VALID,917.13,VALID,0,VALID,97.1376,VALID,0,VALID,21.2811,VALID,81,VALID,0,
2010-04-05, 01:28:04,VALID,917.097,VALID,0,VALID,97.1147,VALID,0,VALID,21.26,VALID,81,VALID,0,
2010-04-05, 01:29:04,VALID,917.091,VALID,0,VALID,97.1223,VALID,0.107441,VALID,21.2616,VALID,81,VALID,0,
2010-04-05, 01:30:04,VALID,917.132,VALID,0,VALID,97.1299,VALID,0.107441,VALID,21.2616,VALID,81,VALID,0,
2010-04-05, 01:31:04,VALID,917.135,VALID,0,VALID,97.1299,VALID,0,VALID,21.2421,VALID,81,VALID,0,
2010-04-05, 01:32:04,VALID,917.093,VALID,0,VALID,97.1223,VALID,0,VALID,21.26,VALID,81,VALID,0,
2010-04-05, 01:33:04,VALID,917.111,VALID,0,VALID,97.1376,VALID,0,VALID,21.2616,VALID,81,VALID,0,
2010-04-05, 01:34:04,VALID,917.086,VALID,0,VALID,97.1147,VALID,0,VALID,21.2616,VALID,81,VALID,0,
2010-04-05, 01:35:04,VALID,917.102,VALID,0,VALID,97.1223,VALID,0,VALID,21.2827,VALID,81,VALID,0,
2010-04-05, 01:36:04,VALID,917.072,VALID,0,VALID,97.1299,VALID,0,VALID,21.2616,VALID,81,VALID,0,
2010-04-05, 01:37:04,VALID,917.074,VALID,0,VALID,97.1299,VALID,0,VALID,21.2616,VALID,81,VALID,0,
2010-04-05, 01:38:04,VALID,917.077,VALID,0,VALID,97.1223,VALID,0,VALID,21.2811,VALID,81,VALID,0,
2010-04-05, 01:39:04,VALID,917.081,VALID,0,VALID,97.1376,VALID,0,VALID,21.3006,VALID,81,VALID,0.0285156,
2010-04-05, 01:40:04,VALID,917.072,VALID,0,VALID,97.1147,VALID,0,VALID,21.3006,VALID,81,VALID,0,
2010-04-05, 01:41:04,VALID,917.069,VALID,0,VALID,97.1452,VALID,0,VALID,21.2811,VALID,81,VALID,0,
2010-04-05, 01:42:04,VALID,917.066,VALID,0,VALID,97.1376,VALID,0,VALID,21.3022,VALID,81,VALID,0,
2010-04-05, 01:43:04,VALID,917.059,VALID,0,VALID,97.1452,VALID,0,VALID,21.3217,VALID,81,VALID,0,
2010-04-05, 01:44:04,VALID,917.064,VALID,0,VALID,97.1376,VALID,0,VALID,21.2811,VALID,81,VALID,0,
2010-04-05, 01:45:04,VALID,917.115,VALID,0,VALID,97.1452,VALID,0,VALID,21.2616,VALID,81,VALID,0,
2010-04-05, 01:46:04,VALID,917.117,VALID,0,VALID,97.1376,VALID,0,VALID,21.2421,VALID,81,VALID,0,
2010-04-05, 01:47:04,VALID,917.112,VALID,0,VALID,97.1376,VALID,0,VALID,21.2226,VALID,81,VALID,0,
2010-04-05, 01:48:04,VALID,917.132,VALID,0,VALID,97.1528,VALID,0,VALID,21.2437,VALID,81,VALID,0,
2010-04-05, 01:49:04,VALID,917.154,VALID,0,VALID,97.1376,VALID,0,VALID,21.2421,VALID,81,VALID,0,
2010-04-05, 01:50:04,VALID,917.162,VALID,0,VALID,97.1376,VALID,0,VALID,21.2811,VALID,81,VALID,0,
2010-04-05, 01:51:04,VALID,917.176,VALID,0,VALID,97.1299,VALID,0,VALID,21.2632,VALID,81,VALID,0,
2010-04-05, 01:52:04,VALID,917.187,VALID,0,VALID,97.1299,VALID,0,VALID,21.2421,VALID,81,VALID,0,
2010-04-05, 01:53:04,VALID,917.173,VALID,0,VALID,97.1299,VALID,0,VALID,21.2421,VALID,81,VALID,0,
2010-04-05, 01:54:04,VALID,917.211,VALID,0,VALID,97.1376,VALID,0,VALID,21.2437,VALID,81,VALID,0.236328,
2010-04-05, 01:55:04,VALID,917.164,VALID,0,VALID,97.1223,VALID,0,VALID,21.2421,VALID,81,VALID,0.116016,
2010-04-05, 01:56:04,VALID,917.177,VALID,0,VALID,97.1376,VALID,0,VALID,21.2421,VALID,81,VALID,0,
2010-04-05, 01:57:04,VALID,917.175,VALID,0,VALID,97.1299,VALID,0.107441,VALID,21.2616,VALID,81,VALID,0.234766,
2010-04-05, 01:58:04,VALID,917.168,VALID,0,VALID,97.1147,VALID,0,VALID,21.2421,VALID,81,VALID,0.299219,
2010-04-05, 01:59:04,VALID,917.208,VALID,0,VALID,97.1223,VALID,0,VALID,21.2632,VALID,81,VALID,0.248437,
2010-04-05, 02:00:04,VALID,917.213,VALID,0,VALID,97.1376,VALID,0,VALID,21.2616,VALID,81,VALID,0.209375,
2010-04-05, 02:01:04,VALID,917.167,VALID,0,VALID,97.1452,VALID,0,VALID,21.2616,VALID,81,VALID,0.292969,
2010-04-05, 02:02:04,VALID,917.172,VALID,0,VALID,97.1299,VALID,0,VALID,21.2632,VALID,81,VALID,0.122656,
2010-04-05, 02:03:04,VALID,917.237,VALID,0,VALID,97.1147,VALID,0,VALID,21.2616,VALID,81,VALID,0.107422,
2010-04-05, 02:04:04,VALID,917.223,VALID,0,VALID,97.1452,VALID,0,VALID,21.2421,VALID,81,VALID,0,
2010-04-05, 02:05:04,VALID,917.241,VALID,0,VALID,97.1299,VALID,0,VALID,21.2827,VALID,81,VALID,0,
2010-04-05, 02:06:04,VALID,917.272,VALID,0,VALID,97.1299,VALID,0,VALID,21.2811,VALID,81,VALID,0,
2010-04-05, 02:07:04,VALID,917.265,VALID,0,VALID,97.1299,VALID,0,VALID,21.2811,VALID,81,VALID,0,
2010-04-05, 02:08:04,VALID,917.237,VALID,0,VALID,97.1528,VALID,0,VALID,21.3006,VALID,81,VALID,0.0207031,
2010-04-05, 02:09:04,VALID,917.272,VALID,0,VALID,97.1299,VALID,0,VALID,21.3006,VALID,81,VALID,0,
2010-04-05, 02:10:04,VALID,917.249,VALID,0,VALID,97.1604,VALID,0,VALID,21.3201,VALID,81,VALID,0,
2010-04-05, 02:11:04,VALID,917.257,VALID,0,VALID,97.1604,VALID,0,VALID,21.3396,VALID,81,VALID,0,
2010-04-05, 02:12:04,VALID,917.265,VALID,0,VALID,97.1376,VALID,0,VALID,21.3608,VALID,81,VALID,0,
2010-04-05, 02:13:04,VALID,917.271,VALID,0,VALID,97.1452,VALID,0,VALID,21.3591,VALID,81,VALID,0,
2010-04-05, 02:14:04,VALID,917.278,VALID,0,VALID,97.1452,VALID,0,VALID,21.3591,VALID,81,VALID,0,
2010-04-05, 02:15:04,VALID,917.265,VALID,0,VALID,97.1604,VALID,0,VALID,21.3396,VALID,81,VALID,0,
2010-04-05, 02:16:04,VALID,917.254,VALID,0,VALID,97.1299,VALID,0,VALID,21.3803,VALID,81,VALID,0,
2010-04-05, 02:17:04,VALID,917.25,VALID,0,VALID,97.1528,VALID,0,VALID,21.3201,VALID,81,VALID,0.242578,
2010-04-05, 02:18:04,VALID,917.263,VALID,0,VALID,97.1299,VALID,0,VALID,21.2811,VALID,81,VALID,0.319531,
2010-04-05, 02:19:04,VALID,917.233,VALID,0,VALID,97.1376,VALID,0,VALID,21.2421,VALID,81,VALID,0.255859,
2010-04-05, 02:20:04,VALID,917.23,VALID,0,VALID,97.1452,VALID,0,VALID,21.2632,VALID,81,VALID,0.344531,
2010-04-05, 02:21:04,VALID,917.192,VALID,0,VALID,97.1223,VALID,0,VALID,21.2242,VALID,81,VALID,0.195703,
2010-04-05, 02:22:04,VALID,917.2,VALID,0,VALID,97.1452,VALID,0,VALID,21.2242,VALID,81,VALID,0,
2010-04-05, 02:23:04,VALID,917.2,VALID,0,VALID,97.1223,VALID,0,VALID,21.2242,VALID,81,VALID,0.270703,
2010-04-05, 02:24:04,VALID,917.168,VALID,0,VALID,97.1376,VALID,0,VALID,21.2031,VALID,81,VALID,0.406641,
2010-04-05, 02:25:04,VALID,917.136,VALID,0,VALID,97.1299,VALID,0,VALID,21.2047,VALID,81,VALID,0.224609,
2010-04-05, 02:26:04,VALID,917.167,VALID,0,VALID,97.1223,VALID,0,VALID,21.2031,VALID,81,VALID,0.0828125,
2010-04-05, 02:27:04,VALID,917.12,VALID,0,VALID,97.1528,VALID,0,VALID,21.2047,VALID,81,VALID,0.395703,
2010-04-05, 02:28:04,VALID,917.135,VALID,0,VALID,97.1528,VALID,0,VALID,21.164,VALID,81,VALID,0.469531,
2010-04-05, 02:29:04,VALID,917.124,VALID,0,VALID,97.1376,VALID,0,VALID,21.164,VALID,81,VALID,0.315234,
2010-04-05, 02:30:04,VALID,917.1,VALID,0,VALID,97.1299,VALID,0,VALID,21.1836,VALID,81,VALID,0.502734,
2010-04-05, 02:31:04,VALID,917.093,VALID,0,VALID,97.1528,VALID,0,VALID,21.1836,VALID,81,VALID,0.319531,
2010-04-05, 02:32:04,VALID,917.07,VALID,0,VALID,97.1299,VALID,0,VALID,21.1836,VALID,81,VALID,0.327344,
2010-04-05, 02:33:04,VALID,917.048,VALID,0,VALID,97.1452,VALID,0,VALID,21.2031,VALID,81,VALID,0.175,
2010-04-05, 02:34:04,VALID,917.047,VALID,0,VALID,97.1604,VALID,0,VALID,21.2031,VALID,81,VALID,0.533203,
2010-04-05, 02:35:04,VALID,917.018,VALID,0,VALID,97.1452,VALID,0,VALID,21.2047,VALID,81,VALID,0.301562,
2010-04-05, 02:36:04,VALID,917.004,VALID,0,VALID,97.1604,VALID,0,VALID,21.2031,VALID,81,VALID,0.436328,
2010-04-05, 02:37:04,VALID,916.974,VALID,0,VALID,97.1833,VALID,0,VALID,21.1836,VALID,81,VALID,0.253906,
2010-04-05, 02:38:04,VALID,916.953,VALID,0,VALID,97.1681,VALID,0,VALID,21.1836,VALID,81,VALID,0.222266,
2010-04-05, 02:39:04,VALID,916.967,VALID,0,VALID,97.1833,VALID,0,VALID,21.1836,VALID,81,VALID,0.330078,
2010-04-05, 02:40:04,VALID,916.939,VALID,0,VALID,97.1604,VALID,0.107441,VALID,21.2031,VALID,81,VALID,0.325,
2010-04-05, 02:41:04,VALID,916.909,VALID,0,VALID,97.1528,VALID,0,VALID,21.2047,VALID,81,VALID,0.144922,
2010-04-05, 02:42:04,VALID,916.922,VALID,0,VALID,97.1833,VALID,0,VALID,21.2031,VALID,81,VALID,0,
2010-04-05, 02:43:04,VALID,916.877,VALID,0,VALID,97.1833,VALID,0,VALID,21.2226,VALID,81,VALID,0.251953,
2010-04-05, 02:44:04,VALID,916.902,VALID,0,VALID,97.1757,VALID,0,VALID,21.2226,VALID,81,VALID,0.255078,
2010-04-05, 02:45:04,VALID,916.886,VALID,0,VALID,97.1833,VALID,0,VALID,21.2226,VALID,81,VALID,0.230078,
2010-04-05, 02:46:04,VALID,916.864,VALID,0,VALID,97.1833,VALID,0,VALID,21.2031,VALID,81,VALID,0.127344,
2010-04-05, 02:47:04,VALID,916.832,VALID,0,VALID,97.1909,VALID,0,VALID,21.2031,VALID,81,VALID,0.264844,
2010-04-05, 02:48:04,VALID,916.851,VALID,0,VALID,97.1833,VALID,0,VALID,21.2031,VALID,81,VALID,0.39375,
2010-04-05, 02:49:04,VALID,916.864,VALID,0,VALID,97.1757,VALID,0,VALID,21.2226,VALID,81,VALID,0.351563,
2010-04-05, 02:50:04,VALID,916.783,VALID,0,VALID,97.1681,VALID,0,VALID,21.2242,VALID,81,VALID,0.142188,
2010-04-05, 02:51:04,VALID,916.771,VALID,0,VALID,97.1757,VALID,0,VALID,21.2226,VALID,81,VALID,0,
2010-04-05, 02:52:04,VALID,916.765,VALID,0,VALID,97.1909,VALID,0,VALID,21.2421,VALID,81,VALID,0,
2010-04-05, 02:53:04,VALID,916.755,VALID,0,VALID,97.2062,VALID,0,VALID,21.2616,VALID,81,VALID,0,
2010-04-05, 02:54:04,VALID,916.734,VALID,0,VALID,97.1909,VALID,0,VALID,21.2827,VALID,81,VALID,0,
2010-04-05, 02:55:04,VALID,916.736,VALID,0,VALID,97.1757,VALID,0,VALID,21.2616,VALID,81,VALID,0.153125,
2010-04-05, 02:56:04,VALID,916.695,VALID,0,VALID,97.2062,VALID,0,VALID,21.3022,VALID,81,VALID,0.528516,
2010-04-05, 02:57:04,VALID,916.688,VALID,0,VALID,97.1909,VALID,0,VALID,21.2616,VALID,81,VALID,0.541016,
2010-04-05, 02:58:04,VALID,916.657,VALID,0,VALID,97.1757,VALID,0,VALID,21.2226,VALID,81,VALID,0.423828,
2010-04-05, 02:59:04,VALID,916.65,VALID,0,VALID,97.1833,VALID,0,VALID,21.2226,VALID,81,VALID,0.439063,
2010-04-05, 03:00:04,VALID,916.648,VALID,0,VALID,97.1909,VALID,0,VALID,21.2047,VALID,81,VALID,0.441016,
2010-04-05, 03:01:04,VALID,916.646,VALID,0,VALID,97.1757,VALID,0,VALID,21.1445,VALID,81,VALID,0.366406,
2010-04-05, 03:02:04,VALID,916.625,VALID,0,VALID,97.1681,VALID,0,VALID,21.1445,VALID,81,VALID,0.388672,
2010-04-05, 03:03:04,VALID,916.63,VALID,0,VALID,97.1681,VALID,0,VALID,21.1657,VALID,81,VALID,0.478516,
2010-04-05, 03:04:04,VALID,916.632,VALID,0,VALID,97.1757,VALID,0,VALID,21.1461,VALID,81,VALID,0.646484,
2010-04-05, 03:05:04,VALID,916.623,VALID,0,VALID,97.1528,VALID,0,VALID,21.1071,VALID,81,VALID,0.604297,
2010-04-05, 03:06:04,VALID,916.591,VALID,0,VALID,97.1833,VALID,0,VALID,21.086,VALID,81,VALID,0.624609,
2010-04-05, 03:07:04,VALID,916.573,VALID,0,VALID,97.1604,VALID,0,VALID,21.0665,VALID,81,VALID,0.619531,
2010-04-05, 03:08:04,VALID,916.54,VALID,0,VALID,97.1757,VALID,0,VALID,21.086,VALID,81,VALID,0.828125,
2010-04-05, 03:09:04,VALID,916.562,VALID,0,VALID,97.1757,VALID,0,VALID,21.0665,VALID,81,VALID,0.973828,
2010-04-05, 03:10:04,VALID,916.553,VALID,0,VALID,97.1909,VALID,0,VALID,21.086,VALID,81,VALID,0.675781,
2010-04-05, 03:11:04,VALID,916.493,VALID,0,VALID,97.1833,VALID,0,VALID,21.125,VALID,81,VALID,0.925781,
2010-04-05, 03:12:04,VALID,916.483,VALID,0,VALID,97.1909,VALID,0,VALID,21.086,VALID,81,VALID,1.22344,
2010-04-05, 03:13:04,VALID,916.464,VALID,0,VALID,97.1833,VALID,0,VALID,21.047,VALID,73,VALID,1.10586,
2010-04-05, 03:14:04,VALID,916.445,VALID,0,VALID,97.1986,VALID,0,VALID,21.0681,VALID,72,VALID,1.08477,
2010-04-05, 03:15:04,VALID,916.415,VALID,0,VALID,97.1833,VALID,0,VALID,21.0486,VALID,72,VALID,1.12617,
2010-04-05, 03:16:04,VALID,916.412,VALID,0,VALID,97.1833,VALID,0,VALID,20.9885,VALID,72,VALID,0.579687,
2010-04-05, 03:17:04,VALID,916.399,VALID,0,VALID,97.2062,VALID,0,VALID,21.008,VALID,72,VALID,0.592188,
2010-04-05, 03:18:04,VALID,916.402,VALID,0,VALID,97.2062,VALID,0,VALID,20.969,VALID,72,VALID,0.863672,
2010-04-05, 03:19:04,VALID,916.39,VALID,0,VALID,97.2214,VALID,0,VALID,20.969,VALID,71,VALID,1.08164,
2010-04-05, 03:20:04,VALID,916.354,VALID,0,VALID,97.2138,VALID,0,VALID,20.969,VALID,71,VALID,0.932422,
2010-04-05, 03:21:04,VALID,916.34,VALID,0,VALID,97.2138,VALID,0,VALID,20.9706,VALID,71,VALID,0.731641,
2010-04-05, 03:22:04,VALID,916.322,VALID,0,VALID,97.2214,VALID,0,VALID,20.93,VALID,71,VALID,0.269531,
2010-04-05, 03:23:04,VALID,916.316,VALID,0,VALID,97.229,VALID,0,VALID,20.9495,VALID,71,VALID,0.28125,
2010-04-05, 03:24:04,VALID,916.292,VALID,0,VALID,97.2367,VALID,0,VALID,20.969,VALID,71,VALID,0.478516,
2010-04-05, 03:25:04,VALID,916.287,VALID,0,VALID,97.2443,VALID,0,VALID,20.9495,VALID,71,VALID,0.326562,
2010-04-05, 03:26:04,VALID,916.309,VALID,0,VALID,97.229,VALID,0,VALID,20.9706,VALID,71,VALID,0.1625,
2010-04-05, 03:27:04,VALID,916.259,VALID,0,VALID,97.229,VALID,0,VALID,20.9885,VALID,71,VALID,0.144531,
2010-04-05, 03:28:04,VALID,916.269,VALID,0,VALID,97.2519,VALID,0,VALID,20.9495,VALID,71,VALID,0.0957031,
2010-04-05, 03:29:04,VALID,916.292,VALID,0,VALID,97.2443,VALID,0,VALID,20.9495,VALID,71,VALID,0,
2010-04-05, 03:30:04,VALID,916.241,VALID,0,VALID,97.2367,VALID,0,VALID,20.9495,VALID,71,VALID,0,
2010-04-05, 03:31:04,VALID,916.266,VALID,0,VALID,97.2367,VALID,0,VALID,20.9495,VALID,71,VALID,0,
2010-04-05, 03:32:04,VALID,916.245,VALID,0,VALID,97.2519,VALID,0,VALID,20.9495,VALID,71,VALID,0,
2010-04-05, 03:33:04,VALID,916.261,VALID,0,VALID,97.2443,VALID,0,VALID,20.969,VALID,71,VALID,0,
2010-04-05, 03:34:04,VALID,916.241,VALID,0,VALID,97.2595,VALID,0,VALID,20.93,VALID,71,VALID,0.115625,
2010-04-05, 03:35:04,VALID,916.222,VALID,0,VALID,97.2367,VALID,0,VALID,20.93,VALID,71,VALID,0,
2010-04-05, 03:36:04,VALID,916.265,VALID,0,VALID,97.2672,VALID,0,VALID,20.93,VALID,71,VALID,0,
2010-04-05, 03:37:04,VALID,916.241,VALID,0,VALID,97.2443,VALID,0,VALID,20.9316,VALID,71,VALID,0.0167969,
2010-04-05, 03:38:04,VALID,916.255,VALID,0,VALID,97.2595,VALID,0,VALID,20.9105,VALID,71,VALID,0,
2010-04-05, 03:39:04,VALID,916.23,VALID,0,VALID,97.2367,VALID,0.107441,VALID,20.9105,VALID,71,VALID,0.0378906,
2010-04-05, 03:40:04,VALID,916.171,VALID,0,VALID,97.2748,VALID,0,VALID,20.9105,VALID,71,VALID,0,
2010-04-05, 03:41:04,VALID,916.214,VALID,0,VALID,97.2672,VALID,0,VALID,20.9105,VALID,71,VALID,0.105469,
2010-04-05, 03:42:04,VALID,916.181,VALID,0,VALID,97.2519,VALID,0,VALID,20.9105,VALID,71,VALID,0.368359,
2010-04-05, 03:43:04,VALID,916.161,VALID,0,VALID,97.2519,VALID,0,VALID,20.9316,VALID,71,VALID,0.232812,
2010-04-05, 03:44:04,VALID,916.147,VALID,0,VALID,97.2672,VALID,0,VALID,20.891,VALID,71,VALID,0.55,
2010-04-05, 03:45:04,VALID,916.169,VALID,0,VALID,97.2595,VALID,0,VALID,20.8519,VALID,71,VALID,0.562109,
2010-04-05, 03:46:04,VALID,916.165,VALID,0,VALID,97.2595,VALID,0,VALID,20.8519,VALID,71,VALID,0.383984,
2010-04-05, 03:47:04,VALID,916.199,VALID,0,VALID,97.2672,VALID,0,VALID,20.873,VALID,71,VALID,0.188672,
2010-04-05, 03:48:04,VALID,916.171,VALID,0,VALID,97.2748,VALID,0,VALID,20.873,VALID,71,VALID,0.103516,
2010-04-05, 03:49:04,VALID,916.203,VALID,0,VALID,97.2824,VALID,0,VALID,20.8925,VALID,71,VALID,0.194922,